Location: Shenandoah County Park
(38.9356°N, 78.4524°W)
Time: 02:07:05
(UTC-05:00)

Envisat - Pass Details

Date: 07 December 2021
Orbit: 764 x 766 km, 98.2° (Epoch: 23 January)

Event Time Altitude Azimuth Distance (km) Brightness Sun altitude
Rises 03:44:15 0° 38° (NE) 3,237 6.7 -41.0°
Reaches altitude 10° 03:48:35 10° 73° (ENE) 2,303 6.1 -40.2°
Maximum altitude 03:49:58 11° 89° (E) 2,228 6.1 -39.9°
Drops below altitude 10° 03:51:22 10° 105° (ESE) 2,298 6.1 -39.7°
Sets 03:55:38 0° 141° (SE) 3,216 6.7 -38.8°
